Home > Weather > Evansville > Past weeks

Flag for USA Weather for the Past 2 Weeks in Evansville, Indiana, USA

Now
56 °F

Overcast.


Feels Like: 55 °F
Forecast: 51 / 64 °F
Wind: 5 mph from Northwest

Location: Evansville Regional Airport

Current Time: May 3, 2016 at 12:05:19 AM

Latest Report: May 2, 2016 at 10:54 PM


Visibility: 10 mi

Pressure: 30.00 "Hg

Humidity: 77%

Dew Point: 49 °F

Location of EvansvilleLocation

Historic Weather in Evansville — Graph

°F

Evansville Temperature Yesterday

Maximum temperature yesterday: 62 °F (at 3:54 PM)
Minimum temperature yesterday: 54 °F (at 4:54 AM)
Average temperature yesterday: 58 °F

High & Low Weather Summary for the Past Weeks

 TemperatureHumidityPressure
High83 °F (Apr 26, 1:54 PM)100% (Apr 22, 6:54 AM)30.35 "Hg (Apr 22, 6:54 AM)
Low44 °F (Apr 24, 5:54 AM)22% (Apr 19, 12:54 PM)29.70 "Hg (Apr 27, 4:54 PM)
Average64 °F72%29.96 "Hg
* Reported Apr 17 9:54 PM — May 2 9:54 PM, Evansville, Weather by CustomWeather, © 2016

Note: Actual official high and low records may vary slightly from our data, if they occured in-between our weather recording intervals... More about our weather records

Advertising

Evansville Weather History for the Previous 24 Hours

Scroll right to see more
 ConditionsComfort  
Time TempWeatherWind HumidityBarometerVisibility
9:54 PM
Mon, May 2
57 °FOvercast.3 mph74%30.00 "Hg10 mi
8:54 PM57 °FMostly cloudy.3 mph74%29.98 "Hg10 mi
7:54 PM57 °FOvercast.5 mph72%29.97 "Hg10 mi
6:54 PM58 °FOvercast.5 mph70%29.97 "Hg10 mi
5:54 PM59 °FOvercast.10 mph69%29.96 "Hg10 mi
4:54 PM60 °FPartly sunny.8 mph69%29.96 "Hg10 mi
3:54 PM62 °FMore clouds than sun.8 mph67%29.96 "Hg10 mi
2:54 PM61 °FMostly cloudy.9 mph70%29.98 "Hg10 mi
1:54 PM61 °FOvercast.5 mph67%29.99 "Hg10 mi
12:54 PM61 °FOvercast.7 mph67%30.01 "Hg10 mi
11:54 AM60 °FOvercast.5 mph72%30.00 "Hg10 mi
10:54 AM60 °FMostly cloudy.5 mph72%30.02 "Hg10 mi
9:54 AM59 °FPartly sunny.No wind72%29.99 "Hg10 mi
8:54 AM58 °FPartly sunny.3 mph78%30.00 "Hg10 mi
7:54 AM56 °FSunny.7 mph84%30.02 "Hg10 mi
6:54 AM55 °FSunny.5 mph87%30.02 "Hg10 mi
5:54 AM54 °FSunny.5 mph90%30.01 "Hg10 mi
4:54 AM54 °FClear.7 mph90%30.01 "Hg10 mi
3:54 AM56 °FClear.7 mph84%29.98 "Hg10 mi
2:54 AM57 °FClear.5 mph81%29.98 "Hg10 mi
1:54 AM59 °FPassing clouds.3 mph75%29.98 "Hg10 mi
12:54 AM60 °FPassing clouds.6 mph72%29.96 "Hg10 mi
Weather by CustomWeather, © 2016

See weather overviewHow to use our weather pages